| time (UTC) | temp F | wind direction | speed MPH | gust MPH | rain 1hr in | rain 24hr in | rain mn in | humidity % | barometer mb |
| 20260901114702 | 69 | 289 | 0.0 | 0.0 | 0.00 | 0.28 | 0.00 | 80 | 1019.5 |
| 20260901114559 | 69 | 289 | 0.0 | 0.0 | 0.00 | 1.42 | 0.00 | 79 | 1019.6 |
| 20260901114045 | 69 | 360 | 0.0 | 0.0 | 0.00 | 1.42 | 0.00 | 78 | 1019.6 |
| 20260901113559 | 70 | 287 | 0.0 | 0.0 | 0.00 | 1.42 | 0.00 | 78 | 1019.6 |
| 20260901113151 | 69 | 360 | 0.0 | 0.0 | 0.00 | 0.28 | 0.00 | 79 | 1019.5 |
| 20260901113047 | 70 | 285 | 0.0 | 0.0 | 0.00 | 1.42 | 0.00 | 79 | 1019.7 |
| 20260901112559 | 70 | 292 | 0.0 | 0.0 | 0.00 | 1.42 | 0.00 | 79 | 1019.7 |
| 20260901112045 | 70 | 290 | 0.0 | 0.0 | 0.00 | 1.42 | 0.00 | 79 | 1019.7 |
| 20260901111618 | 70 | 297 | 0.0 | 0.0 | 0.00 | 1.42 | 0.00 | 81 | 1019.7 |
| 20260901111507 | 69 | 360 | 0.0 | 0.0 | 0.00 | 0.28 | 0.00 | 81 | 1019.5 |
| 20260901111043 | 69 | 284 | 0.0 | 0.0 | 0.00 | 1.42 | 0.00 | 82 | 1019.6 |
| 20260901110555 | 69 | 298 | 0.0 | 0.0 | 0.00 | 1.42 | 0.00 | 83 | 1019.6 |
| 20260901110103 | 68 | 360 | 0.0 | 0.0 | 0.00 | 1.54 | 0.00 | 84 | 1019.6 |
| 20260901105553 | 68 | 360 | 0.0 | 0.0 | 0.00 | 1.54 | 0.00 | 83 | 1019.7 |
| 20260901105043 | 68 | 299 | 0.0 | 0.0 | 0.00 | 1.54 | 0.00 | 83 | 1019.7 |
| 20260901104554 | 68 | 295 | 0.0 | 0.0 | 0.00 | 1.54 | 0.00 | 83 | 1019.7 |
| 20260901104501 | 67 | 295 | 0.0 | 0.0 | 0.00 | 0.31 | 0.00 | 83 | 1019.4 |
| 20260901104101 | 67 | 294 | 0.0 | 0.0 | 0.00 | 1.54 | 0.00 | 83 | 1019.7 |
| 20260901103553 | 68 | 360 | 0.0 | 0.0 | 0.00 | 1.54 | 0.00 | 82 | 1019.7 |
| 20260901103101 | 68 | 286 | 0.0 | 0.0 | 0.00 | 1.54 | 0.00 | 82 | 1019.7 |
| 20260901102553 | 68 | 298 | 0.0 | 0.0 | 0.00 | 1.54 | 0.00 | 82 | 1019.6 |
| 20260901102102 | 68 | 304 | 0.0 | 0.0 | 0.00 | 1.54 | 0.00 | 83 | 1019.6 |
| 20260901101653 | 67 | 286 | 0.0 | 0.0 | 0.00 | 0.31 | 0.00 | 84 | 1019.5 |
| 20260901101553 | 68 | 247 | 0.0 | 0.0 | 0.00 | 1.54 | 0.00 | 84 | 1019.7 |
| 20260901101042 | 67 | 296 | 0.0 | 0.0 | 0.00 | 1.54 | 0.00 | 85 | 1019.6 |
| 20260901100615 | 67 | 292 | 0.0 | 0.0 | 0.00 | 1.54 | 0.00 | 86 | 1019.7 |
| 20260901100101 | 66 | 294 | 0.0 | 0.0 | 0.00 | 1.54 | 0.00 | 86 | 1019.6 |
| 20260901100013 | 66 | 288 | 0.0 | 0.0 | 0.00 | 0.31 | 0.00 | 86 | 1019.5 |
| 20260901095550 | 66 | 286 | 0.0 | 0.0 | 0.00 | 1.54 | 0.00 | 86 | 1019.7 |
| 20260901095058 | 66 | 360 | 0.0 | 0.0 | 0.00 | 1.54 | 0.00 | 86 | 1019.8 |
| 20260901094651 | 65 | 294 | 0.0 | 0.0 | 0.00 | 0.31 | 0.00 | 86 | 1019.6 |
| 20260901094549 | 65 | 287 | 0.0 | 0.0 | 0.00 | 1.54 | 0.00 | 86 | 1019.8 |
| 20260901094057 | 65 | 360 | 0.0 | 0.0 | 0.00 | 1.54 | 0.00 | 86 | 1019.8 |
| 20260901093548 | 65 | 288 | 0.0 | 0.0 | 0.00 | 1.54 | 0.00 | 86 | 1019.7 |
| 20260901093157 | 64 | 286 | 0.0 | 0.0 | 0.00 | 0.31 | 0.00 | 86 | 1019.5 |
| 20260901093056 | 65 | 289 | 0.0 | 0.0 | 0.00 | 1.54 | 0.00 | 86 | 1019.6 |
| 20260901092547 | 65 | 360 | 0.0 | 0.0 | 0.00 | 1.54 | 0.00 | 87 | 1019.6 |
| 20260901092102 | 65 | 360 | 0.0 | 0.0 | 0.00 | 1.54 | 0.00 | 87 | 1019.6 |
| 20260901091543 | 64 | 360 | 0.0 | 0.0 | 0.00 | 0.31 | 0.00 | 87 | 1019.4 |
| 20260901090051 | 64 | 360 | 0.0 | 0.0 | 0.00 | 0.31 | 0.00 | 87 | 1019.3 |
| 20260901084537 | 64 | 360 | 0.0 | 0.0 | 0.00 | 0.31 | 0.00 | 87 | 1019.2 |
| 20260901083036 | 64 | 360 | 0.0 | 0.0 | 0.00 | 0.31 | 0.00 | 88 | 1019.2 |
| 20260901081534 | 64 | 360 | 0.0 | 0.0 | 0.00 | 0.31 | 0.00 | 89 | 1019.0 |
| 20260901080033 | 64 | 360 | 0.0 | 0.0 | 0.00 | 0.31 | 0.00 | 90 | 1019.0 |
| 20260901074530 | 63 | 360 | 0.0 | 0.0 | 0.00 | 0.31 | 0.00 | 91 | 1018.9 |
| 20260901073030 | 63 | 285 | 0.0 | 0.0 | 0.00 | 0.31 | 0.00 | 91 | 1018.8 |
| 20260901071528 | 63 | 360 | 0.0 | 0.0 | 0.00 | 0.31 | 0.00 | 92 | 1018.8 |
| 20260901070038 | 63 | 287 | 0.0 | 0.0 | 0.00 | 0.31 | 0.00 | 93 | 1018.8 |
| 20260901064524 | 62 | 360 | 0.0 | 0.0 | 0.00 | 0.31 | 0.00 | 93 | 1018.7 |
| 20260901063021 | 62 | 360 | 0.0 | 0.0 | 0.00 | 0.31 | 0.00 | 93 | 1018.5 |
| 20260901061520 | 61 | 360 | 0.0 | 0.0 | 0.00 | 0.31 | 0.00 | 93 | 1018.5 |
| 20260901060032 | 61 | 360 | 0.0 | 0.0 | 0.00 | 0.31 | 0.00 | 93 | 1018.5 |
| 20260901054524 | 61 | 360 | 0.0 | 0.0 | 0.00 | 0.31 | 0.00 | 93 | 1018.5 |
| 20260901053016 | 61 | 360 | 0.0 | 0.0 | 0.00 | 0.31 | 0.00 | 93 | 1018.4 |
| 20260901051518 | 61 | 360 | 0.0 | 0.0 | 0.00 | 0.31 | 0.00 | 93 | 1018.3 |
| 20260901050013 | 61 | 285 | 0.0 | 0.0 | 0.00 | 0.31 | 0.00 | 94 | 1018.1 |
| 20260901044511 | 61 | 360 | 0.0 | 0.0 | 0.00 | 0.31 | 0.00 | 93 | 1017.9 |
| 20260901043014 | 60 | 360 | 0.0 | 0.0 | 0.00 | 0.31 | 0.00 | 93 | 1017.6 |
| 20260901041508 | 60 | 360 | 0.0 | 0.0 | 0.00 | 0.31 | 0.00 | 93 | 1017.4 |
| 20260901040007 | 60 | 360 | 0.0 | 0.0 | 0.00 | 0.31 | 0.00 | 93 | 1017.4 |
| 20260901034511 | 60 | 360 | 0.0 | 0.0 | 0.00 | 0.31 | 0.00 | 93 | 1017.4 |
| 20260901033019 | 60 | 360 | 0.0 | 0.0 | 0.00 | 0.31 | 0.00 | 93 | 1017.4 |
| 20260901031505 | 60 | 360 | 0.0 | 0.0 | 0.00 | 0.31 | 0.00 | 93 | 1017.4 |
| 20260901030006 | 60 | 360 | 0.0 | 0.0 | 0.00 | 0.31 | 0.00 | 93 | 1017.3 |
| 20260901024504 | 60 | 360 | 0.0 | 0.0 | 0.00 | 0.31 | 0.00 | 93 | 1017.4 |
| 20260901023002 | 60 | 360 | 0.0 | 0.0 | 0.00 | 0.31 | 0.00 | 93 | 1017.3 |
| 20260901021600 | 60 | 360 | 0.0 | 0.0 | 0.00 | 0.31 | 0.00 | 92 | 1017.1 |
| 20260901014559 | 60 | 360 | 0.0 | 0.0 | 0.00 | 0.33 | 0.00 | 92 | 1017.1 |
| 20260901013106 | 60 | 360 | 0.0 | 0.0 | 0.00 | 0.33 | 0.00 | 92 | 1017.0 |
| 20260901011558 | 60 | 288 | 0.0 | 0.0 | 0.00 | 0.33 | 0.00 | 92 | 1016.9 |
| 20260901010059 | 60 | 360 | 0.0 | 0.0 | 0.00 | 0.33 | 0.00 | 92 | 1016.9 |
| 20260901004600 | 60 | 306 | 0.0 | 0.0 | 0.00 | 0.33 | 0.00 | 92 | 1017.0 |
| 20260901003102 | 60 | 360 | 0.0 | 0.0 | 0.00 | 0.33 | 0.00 | 92 | 1016.9 |
| 20260901001555 | 61 | 360 | 0.0 | 0.0 | 0.00 | 0.33 | 0.00 | 93 | 1017.0 |
| 20260901000054 | 61 | 360 | 0.0 | 0.0 | 0.00 | 0.33 | 0.00 | 93 | 1016.8 |
| 20260831234553 | 61 | 360 | 0.0 | 0.0 | 0.00 | 0.33 | 0.00 | 93 | 1016.7 |
| 20260831233052 | 61 | 288 | 0.0 | 0.0 | 0.00 | 0.33 | 0.00 | 93 | 1016.7 |
| 20260831231605 | 61 | 288 | 0.0 | 0.0 | 0.00 | 0.33 | 0.00 | 93 | 1016.7 |
| 20260831230051 | 61 | 288 | 0.0 | 0.0 | 0.00 | 0.33 | 0.00 | 93 | 1016.7 |
| 20260831224549 | 61 | 288 | 0.0 | 0.0 | 0.00 | 0.33 | 0.00 | 93 | 1016.6 |
| 20260831223051 | 61 | 360 | 0.0 | 0.0 | 0.00 | 0.33 | 0.00 | 93 | 1016.6 |
| 20260831221546 | 60 | 360 | 0.0 | 0.0 | 0.00 | 0.33 | 0.00 | 93 | 1016.6 |
| 20260831220045 | 60 | 360 | 0.0 | 0.0 | 0.00 | 0.33 | 0.33 | 93 | 1016.5 |
| 20260831214546 | 60 | 286 | 0.0 | 0.0 | 0.00 | 0.33 | 0.33 | 92 | 1016.6 |
| 20260831213047 | 60 | 286 | 0.0 | 0.0 | 0.00 | 0.33 | 0.33 | 92 | 1016.6 |
| 20260831211543 | 60 | 286 | 0.0 | 0.0 | 0.00 | 0.33 | 0.33 | 92 | 1016.4 |
| 20260831210040 | 61 | 286 | 0.0 | 0.0 | 0.00 | 0.33 | 0.33 | 92 | 1016.1 |
| 20260831204540 | 61 | 286 | 0.0 | 0.0 | 0.00 | 0.33 | 0.33 | 92 | 1016.0 |
| 20260831203040 | 61 | 286 | 0.0 | 0.0 | 0.00 | 0.33 | 0.33 | 92 | 1016.0 |
| 20260831201541 | 61 | 360 | 0.0 | 0.0 | 0.00 | 0.33 | 0.33 | 92 | 1015.9 |
| 20260831200039 | 62 | 360 | 0.0 | 0.0 | 0.00 | 0.33 | 0.33 | 91 | 1015.7 |
| 20260831194610 | 62 | 360 | 0.0 | 0.0 | 0.00 | 0.33 | 0.33 | 91 | 1015.4 |
| 20260831193032 | 62 | 360 | 0.0 | 0.0 | 0.00 | 0.33 | 0.33 | 91 | 1015.1 |
| 20260831191530 | 62 | 360 | 0.0 | 0.0 | 0.00 | 0.33 | 0.33 | 91 | 1014.9 |
| 20260831190035 | 62 | 285 | 0.0 | 0.0 | 0.00 | 0.33 | 0.33 | 91 | 1014.7 |
| 20260831184526 | 62 | 288 | 0.0 | 0.0 | 0.00 | 0.33 | 0.33 | 90 | 1014.5 |
| 20260831183025 | 62 | 288 | 0.0 | 0.0 | 0.00 | 0.33 | 0.33 | 90 | 1014.3 |
| 20260831181523 | 62 | 288 | 0.0 | 0.0 | 0.00 | 0.33 | 0.33 | 90 | 1014.1 |
| 20260831180022 | 63 | 360 | 0.0 | 0.0 | 0.00 | 0.33 | 0.33 | 91 | 1013.7 |
| 20260831175057 | 63 | 360 | 0.0 | 0.0 | 0.00 | 1.65 | 0.33 | 91 | 1013.8 |
| 20260831174608 | 63 | 284 | 0.0 | 0.0 | 0.00 | 1.65 | 0.33 | 91 | 1013.7 |
| 20260831174054 | 63 | 360 | 0.0 | 0.0 | 0.00 | 1.65 | 0.33 | 91 | 1013.7 |
| 20260831173651 | 63 | 286 | 0.0 | 0.0 | 0.00 | 1.65 | 0.33 | 92 | 1013.5 |
| 20260831173018 | 63 | 296 | 0.0 | 0.0 | 0.00 | 0.33 | 0.33 | 92 | 1013.3 |
| 20260831171523 | 63 | 286 | 0.0 | 0.0 | 0.00 | 0.33 | 0.33 | 93 | 1013.1 |
| 20260831170016 | 63 | 289 | 0.0 | 0.0 | 0.00 | 0.33 | 0.33 | 93 | 1013.0 |
| 20260831164513 | 63 | 286 | 0.0 | 0.0 | 0.00 | 0.33 | 0.33 | 92 | 1012.8 |
| 20260831163013 | 63 | 288 | 0.0 | 0.0 | 0.03 | 0.33 | 0.33 | 93 | 1012.8 |
| 20260831161511 | 62 | 360 | 0.0 | 0.0 | 0.08 | 0.33 | 0.33 | 93 | 1012.7 |
| 20260831160011 | 62 | 298 | 0.0 | 0.0 | 0.17 | 0.33 | 0.33 | 92 | 1012.7 |
| 20260831154520 | 61 | 290 | 0.0 | 0.0 | 0.22 | 0.33 | 0.33 | 91 | 1012.6 |
| 20260831153010 | 61 | 291 | 0.0 | 0.0 | 0.21 | 0.30 | 0.30 | 89 | 1012.6 |
| 20260831151506 | 61 | 360 | 0.0 | 0.0 | 0.15 | 0.24 | 0.24 | 87 | 1012.4 |
| 20260831150005 | 63 | 288 | 0.0 | 0.0 | 0.07 | 0.16 | 0.16 | 87 | 1012.1 |
| 20260831144502 | 65 | 298 | 0.0 | 0.0 | 0.02 | 0.10 | 0.10 | 85 | 1011.9 |
| 20260831143104 | 65 | 284 | 0.0 | 0.0 | 0.00 | 0.09 | 0.09 | 85 | 1011.5 |
| 20260831141559 | 64 | 360 | 0.0 | 0.0 | 0.00 | 0.09 | 0.09 | 87 | 1011.5 |
| 20260831140059 | 63 | 360 | 0.0 | 0.0 | 0.02 | 0.09 | 0.09 | 88 | 1011.3 |
| 20260831134558 | 63 | 360 | 0.0 | 0.0 | 0.02 | 0.09 | 0.09 | 88 | 1011.2 |
| 20260831133102 | 63 | 360 | 0.0 | 0.0 | 0.02 | 0.09 | 0.09 | 86 | 1011.2 |
| 20260831131603 | 64 | 286 | 0.0 | 0.0 | 0.02 | 0.09 | 0.09 | 86 | 1010.9 |
| 20260831124602 | 66 | 287 | 0.0 | 0.0 | 0.00 | 0.07 | 0.07 | 83 | 1010.1 |
| 20260831123056 | 66 | 288 | 0.0 | 0.0 | 0.00 | 0.07 | 0.07 | 85 | 1010.2 |
| 20260831121553 | 66 | 295 | 0.0 | 0.0 | 0.01 | 0.07 | 0.07 | 86 | 1010.2 |
| 20260831120052 | 67 | 360 | 0.0 | 0.0 | 0.02 | 0.07 | 0.07 | 89 | 1010.2 |